weather.gov     
National Weather Service

Terminal Aerodrome Forecast
NWS Homepage
This page is being discontinued on March 12, 2014.
The same data is available at this site. Please update your bookmarks.
Thank you, and we apologize for the inconvenience.
Please send an email to SR-SRH.Webmaster@noaa.gov with any concerns.


Current Version
Previous Version:    01  02  03  04  05  06  07  08  09  10  11  12  13  14  15  16  17  18  19  20  21  22  23  24  25  26  27  28  
[Printable]
307
FTUS43 KICT 240500
TAFCNU
TAF
KCNU 240520Z 2406/2506 16018G25KT P6SM SCT100 SCT250
     FM241100 20017KT P6SM VCTS BKN025CB
     FM241500 33018G27KT P6SM -TSRA BKN025CB
     FM242200 32017G24KT P6SM SCT025 BKN080
     FM250300 VRB06KT P6SM SKC=


U.S. Dept. of Commerce
NOAA National Weather Service
1325 East West Highway
Silver Spring, MD 20910
E-mail: w-nws.webmaster@noaa.gov
Page last modified: May 16, 2007
NATIONAL WEATHER SERVICE: for Safety, for Work, for Fun - FOR LIFE